Location: Bonnesvalyn
(49.1218°N, 3.3177°E)
Time: 10:10:15
(UTC+00:00)

COSMOS 1275 DEB - Pass Details

Date: 05 March 2024
Orbit: 834 x 913 km, 82.7° (Epoch: 16 April)

Event Time Altitude Azimuth Distance (km) Brightness Sun altitude
Rises 23:10:33 0° 348° (NNW) 3,396 ? -45.3°
Reaches altitude 10° 23:12:58 10° 346° (NNW) 2,457 ? -45.4°
Enters shadow 23:13:28 13° 345° (NNW) 2,267 ? -45.4°
